Location: Cardiff
(53.7833°N, 113.6000°W)
Time: 00:03:28
(UTC+00:00)

VELOX 1 - Visible Passes

Search period start: 07 December 2023 00:00
Search period end: 17 December 2023 00:00
Orbit: 610 x 625 km, 98.4° (Epoch: 06 December)

Date Brightness Start Highest point End Pass type
(mag) Time Alt. Az. Time Alt. Az. Time Alt. Az.
07 Dec ? 12:21:33 10° E 12:24:23 17° NE 12:27:13 10° NNE visible
07 Dec ? 13:55:36 10° SSE 13:59:53 81° WSW 14:04:12 10° NNW visible
08 Dec ? 12:37:26 10° ESE 12:40:46 23° ENE 12:44:07 10° N visible
08 Dec ? 14:12:16 10° S 14:16:28 58° WSW 14:20:44 10° NNW visible
09 Dec ? 12:53:28 10° ESE 12:57:11 30° ENE 13:00:56 10° N visible
09 Dec ? 14:29:03 10° S 14:33:06 41° W 14:37:11 10° NNW visible
10 Dec ? 13:09:38 10° SE 13:13:38 39° ENE 13:17:39 10° N visible
10 Dec ? 14:45:59 10° SSW 14:49:45 30° W 14:53:33 10° NNW visible
11 Dec ? 11:54:01 10° ENE 11:54:59 11° NE 11:55:56 10° NE visible
11 Dec ? 13:25:56 10° SE 13:30:06 54° ENE 13:34:19 10° N visible
12 Dec ? 12:09:05 10° E 12:11:17 14° NE 12:13:29 10° NNE visible
12 Dec ? 13:42:19 10° SSE 13:46:36 76° ENE 13:50:55 10° NNW visible
13 Dec ? 12:24:42 10° E 12:27:36 18° NE 12:30:31 10° NNE visible
13 Dec ? 13:58:50 10° SSE 14:03:08 78° WSW 14:07:27 10° NNW visible
14 Dec ? 12:40:33 10° ESE 12:43:57 23° ENE 12:47:22 10° N visible
14 Dec ? 14:15:28 10° S 14:19:41 55° WSW 14:23:55 10° NNW visible
15 Dec ? 12:56:35 10° ESE 13:00:19 30° ENE 13:04:06 10° N visible
15 Dec ? 14:32:14 10° SSW 14:36:15 39° W 14:40:20 10° NNW visible
16 Dec ? 13:12:43 10° SE 13:16:44 41° ENE 13:20:47 10° N visible
16 Dec ? 14:49:09 10° SSW 14:52:52 29° W 14:56:38 10° NW visible
